Clearfield, PA

7:47 AM EST on January 24, 2018 (GMT -0500)
Clearfield-Lawrence

Weather History for KFIG - September, 2014

Change the Weather History Date:

Tuesday, September 2, 2014

  Actual Average (KDUJ) Record (KDUJ)
Temperature  
Mean Temperature 73 °F -  
Max Temperature 80 °F 75 °F 88 °F (1973)
Min Temperature 66 °F 56 °F 43 °F (2001)
Cooling Degree Days 8    
Growing Degree Days 23 (Base 50)    
Moisture  
Dew Point 68 °F    
Average Humidity 88    
Maximum Humidity 100    
Minimum Humidity 64    
Precipitation  
Precipitation 0.53 in - - ()
Sea Level Pressure  
Sea Level Pressure 29.93 in    
Wind  
Wind Speed 8 mph (SW)    
Max Wind Speed 29 mph    
Max Gust Speed 41 mph    
Visibility 8 miles    
Events Fog , Rain , Thunderstorm    
Averages and records for this station are not official NWS values.
T = Trace of Precipitation, MM = Missing Value Source: NWS Daily Summary

Daily Weather History Graph

Daily Weather History Graph

Search for Another Location

Airport or City:

Trip Planner

Search our weather history database for the weather conditions in past years. The results will help you decide how hot, cold, wet, or windy it might be!

Date:

Astronomy

Sep. 02, 2014 Rise Set
Actual Time 6:41 AM EDT 7:44 PM EDT
Civil Twilight 6:13 AM EDT 8:12 PM EDT
Nautical Twilight 5:39 AM EDT 8:46 PM EDT
Astronomical Twilight 5:04 AM EDT 9:21 PM EDT
Moon 2:27 PM EDT (9/2) No Moon Set
Length of Visible Light 13h 59m
Length of Day
13h 03m
First Quarter, 52% of the Moon is Illuminated
Sep 2
First Quarter
Sep 8
Full
Sep 15
Last Quarter
Sep 24
New
Oct 1
First Quarter

Hourly Weather History & Observations

Time (EDT) Temp. Heat Index Dew Point Humidity Pressure Visibility Wind Dir Wind Speed Gust Speed Precip Events Conditions
12:54 AM 68.0 °F - 68.0 °F 100% 29.96 in 4.0 mi SW 4.6 mph - N/A   Clear
1:54 AM 69.1 °F - 68.0 °F 96% 29.95 in 5.0 mi SSW 6.9 mph - 0.00 in   Mostly Cloudy
2:35 AM 70.0 °F - 69.1 °F 97% 29.98 in 9.0 mi SSW 6.9 mph - 0.01 in   Overcast
2:54 AM 70.0 °F - 69.1 °F 97% 29.95 in 9.0 mi SSW 5.8 mph - 0.01 in   Overcast
3:54 AM 70.0 °F - 69.1 °F 97% 29.94 in 9.0 mi SSW 6.9 mph - 0.00 in   Overcast
4:54 AM 70.0 °F - 69.1 °F 97% 29.94 in 10.0 mi South 4.6 mph - N/A   Overcast
5:44 AM 70.0 °F - 69.1 °F 97% 29.97 in 9.0 mi South 5.8 mph - N/A   Overcast
5:54 AM 70.0 °F - 69.1 °F 97% 29.95 in 9.0 mi South 5.8 mph - N/A   Overcast
6:22 AM 70.0 °F - 69.1 °F 97% 29.98 in 10.0 mi SSW 5.8 mph - N/A   Overcast
6:54 AM 70.0 °F - 68.0 °F 93% 29.96 in 10.0 mi SW 5.8 mph - N/A   Overcast
7:29 AM 70.0 °F - 69.1 °F 97% 29.99 in 10.0 mi SW 6.9 mph - N/A   Overcast
7:54 AM 70.0 °F - 69.1 °F 97% 29.96 in 9.0 mi SSW 6.9 mph - N/A   Overcast
8:15 AM 71.1 °F - 69.1 °F 93% 29.99 in 9.0 mi SSW 6.9 mph - N/A   Overcast
8:54 AM 72.0 °F - 70.0 °F 93% 29.96 in 10.0 mi SSW 5.8 mph - N/A   Overcast
9:54 AM 75.0 °F - 68.0 °F 79% 29.97 in 10.0 mi West 10.4 mph 19.6 mph N/A   Mostly Cloudy
10:06 AM 75.9 °F - 68.0 °F 76% 30.00 in 10.0 mi SW 12.7 mph - N/A   Mostly Cloudy
10:54 AM 77.0 °F - 68.0 °F 74% 29.97 in 10.0 mi WSW 10.4 mph 19.6 mph N/A   Mostly Cloudy
11:02 AM 75.9 °F - 66.0 °F 71% 29.99 in 10.0 mi SW 11.5 mph - N/A   Mostly Cloudy
11:11 AM 77.0 °F - 66.0 °F 69% 29.99 in 10.0 mi WSW 12.7 mph 18.4 mph N/A   Overcast
11:54 AM 80.1 °F 82.3 °F 66.9 °F 64% 29.95 in 10.0 mi WSW 12.7 mph 20.7 mph N/A   Scattered Clouds
12:54 PM 79.0 °F - 66.9 °F 66% 29.93 in 10.0 mi SW 6.9 mph - N/A   Mostly Cloudy
1:54 PM 78.1 °F - 66.9 °F 68% 29.91 in 10.0 mi SSW 6.9 mph - N/A   Overcast
2:54 PM 78.1 °F - 66.9 °F 68% 29.89 in 10.0 mi SSW 8.1 mph - N/A   Overcast
3:54 PM 78.1 °F - 68.0 °F 71% 29.86 in 10.0 mi SW 8.1 mph - N/A   Scattered Clouds
4:54 PM 78.1 °F - 69.1 °F 74% 29.83 in 10.0 mi SSW 10.4 mph - N/A   Mostly Cloudy
5:09 PM 75.0 °F - 70.0 °F 84% 29.86 in 3.0 mi SW 6.9 mph - 0.04 in Rain , Thunderstorm Light Rain
5:22 PM 75.9 °F - 69.1 °F 79% 29.84 in 10.0 mi SSW 18.4 mph 33.4 mph 0.04 in Thunderstorm Thunderstorm
5:46 PM 75.0 °F - 68.0 °F 79% 29.86 in 10.0 mi SW 13.8 mph 19.6 mph 0.04 in Thunderstorm Mostly Cloudy
5:51 PM 73.4 °F - 69.8 °F 88% 29.91 in 1.5 mi WNW 28.8 mph 41.4 mph 0.16 in Rain , Thunderstorm Thunderstorms and Rain
5:54 PM 71.1 °F - 68.0 °F 90% 29.87 in 0.2 mi WNW 21.9 mph 41.4 mph 0.42 in Fog , Rain , Thunderstorm Heavy Thunderstorms and Rain
6:02 PM 69.1 °F - 66.9 °F 93% 29.89 in 0.5 mi WNW 13.8 mph 31.1 mph 0.09 in Fog , Rain , Thunderstorm Heavy Thunderstorms and Rain
6:05 PM 69.1 °F - 66.9 °F 93% 29.90 in 1.2 mi WNW 10.4 mph 23.0 mph 0.10 in Rain , Thunderstorm Heavy Thunderstorms and Rain
6:09 PM 69.1 °F - 68.0 °F 96% 29.90 in 4.0 mi West 6.9 mph 23.0 mph 0.10 in Rain , Thunderstorm Thunderstorms and Rain
6:15 PM 70.0 °F - 68.0 °F 93% 29.90 in 10.0 mi West 6.9 mph - 0.10 in Rain , Thunderstorm Light Rain
6:20 PM 70.0 °F - 68.0 °F 93% 29.90 in 10.0 mi Variable 6.9 mph - 0.10 in   Mostly Cloudy
6:54 PM 72.0 °F - 66.9 °F 84% 29.89 in 10.0 mi WNW 11.5 mph 20.7 mph 0.10 in   Scattered Clouds
7:54 PM 69.1 °F - 64.9 °F 87% 29.91 in 10.0 mi Variable 5.8 mph - N/A   Clear
8:54 PM 69.1 °F - 64.9 °F 87% 29.92 in 10.0 mi WNW 8.1 mph - N/A   Clear
9:54 PM 66.0 °F - 66.0 °F 100% 29.94 in 10.0 mi Calm Calm - N/A   Scattered Clouds
10:37 PM 66.0 °F - 64.9 °F 96% 29.98 in 10.0 mi South 3.5 mph - N/A   Mostly Cloudy
10:54 PM 66.0 °F - 66.0 °F 100% 29.96 in 10.0 mi Calm Calm - N/A   Overcast
11:14 PM 66.9 °F - 66.0 °F 97% 29.99 in 10.0 mi Calm Calm - N/A   Overcast
11:54 PM 66.0 °F - 64.9 °F 96% 29.96 in 10.0 mi SSW 4.6 mph - N/A   Mostly Cloudy